sat.trackr.live / text

‹ back to catalog

STARLINK-5670

NORAD 55341 · 2023-013L

PAYLOAD ACTIVE UNKNOWN

§ Identity

Operator
Country
US
Launch date
2023-01-26
Launch site
AFETR
Launch vehicle
Mass (kg)
RCS (m²)

Purposes: comms

External: N2YO · Heavens-Above · Gunter

§ Orbital elements

Epoch: 2026-05-24T15:05:51.680832Z

Period
94.27 min
Inclination
43.0046°
Eccentricity
0.0001629
Mean motion
15.27574718 rev/d
Perigee alt
481.9 km
Apogee alt
484.2 km
Semi-major
6,861.2 km
B*
-1.0762e-5
RAAN
234.8639°
Arg perigee
275.5619°
Mean anomaly
84.5047°
Rev number
18,328

§ Raw data

STARLINK-56701 55341U 23013L   26144.62907038 -.00000558  00000+0 -10762-4 0  99982 55341  43.0046 234.8639 0001629 275.5619  84.5047 15.27574718183282

JSON: /api/v1/satellites/55341 · /tle

For live sub-satellite position, see the globe view (requires WebGL).

§ Visibility from observer

Set your observer location to see the next 7 days of passes ≥ 10°. The values pass through the URL so the page stays shareable.

No JS? Fill the form by hand. The geolocation button needs JavaScript.